EA5SW-14 Weather Reports


Display with metric or nautical units.
time (UTC)temp
F
wind
direction
speed
MPH
gust
MPH
rain 1hr
in
rain 24hr
in
rain mn
in
humidity
%
barometer
mb
20260504012235 55 30 2.0 4.0 0.00 0.35 0.00 97 1007.7
20260504011231 55 13 2.0 4.0 0.00 0.35 0.00 97 1007.7
20260504010227 55 39 3.0 4.0 0.00 0.35 0.00 97 1007.7
20260504005222 55 60 2.0 4.0 0.00 0.35 0.00 97 1007.7
20260504004218 55 83 2.0 2.0 0.00 0.35 0.00 96 1007.9
20260504003314 55 41 3.0 4.0 0.00 0.35 0.00 96 1008.2
20260504002310 55 15 2.0 4.0 0.00 0.35 0.00 96 1008.2
20260504001306 55 33 1.0 4.0 0.00 0.35 0.00 96 1008.3
20260504000301 55 45 1.0 2.0 0.00 0.35 0.00 96 1008.3
20260503235257 55 31 1.0 4.0 0.00 0.35 0.00 96 1008.3
20260503234253 55 23 2.0 4.0 0.00 0.35 0.00 96 1008.3
20260503233249 55 39 3.0 4.0 0.00 0.35 0.00 96 1008.4
20260503232325 55 45 1.0 2.0 0.00 0.35 0.00 96 1008.4
20260503231300 54 83 1.0 4.0 0.00 0.35 0.00 96 1008.5
20260503230316 54 23 2.0 4.0 0.00 0.35 0.00 96 1008.5
20260503225232 54 41 1.0 4.0 0.00 0.35 0.00 95 1008.5
20260503224228 54 32 3.0 6.0 0.00 0.35 0.00 95 1008.5
20260503223224 55 69 2.0 2.0 0.00 0.35 0.00 95 1008.6
20260503222220 55 46 2.0 4.0 0.00 0.35 0.00 95 1008.7
20260503221215 55 37 2.0 4.0 0.00 0.35 0.00 95 1008.8
20260503220311 55 23 2.0 2.0 0.00 0.35 0.00 95 1008.6
20260503215307 55 45 2.0 4.0 0.00 0.35 0.35 95 1008.8
20260503214302 55 37 3.0 6.0 0.00 0.35 0.35 95 1008.7
20260503213258 55 23 4.0 6.0 0.00 0.35 0.35 94 1008.7
20260503212254 55 49 3.0 4.0 0.00 0.35 0.35 94 1008.7
20260503211249 55 45 2.0 2.0 0.00 0.35 0.35 94 1008.5
20260503210245 56 68 3.0 6.0 0.00 0.35 0.35 94 1008.6
20260503205321 56 58 3.0 4.0 0.00 0.35 0.35 94 1008.4
20260503204236 56 68 3.0 6.0 0.00 0.35 0.35 94 1008.5
20260503203232 56 54 3.0 4.0 0.00 0.35 0.35 94 1008.3
20260503202228 56 61 4.0 6.0 0.00 0.35 0.35 94 1008.1
20260503201224 56 101 2.0 4.0 0.00 0.35 0.35 94 1008.0
20260503200219 56 89 4.0 8.0 0.00 0.35 0.35 93 1007.9
20260503195215 57 107 3.0 6.0 0.00 0.35 0.35 93 1007.7
20260503194311 57 32 3.0 6.0 0.00 0.35 0.35 93 1007.7
20260503193307 57 62 3.0 4.0 0.00 0.35 0.35 93 1007.5
20260503192305 58 34 3.0 6.0 0.00 0.35 0.35 93 1007.4
20260503191318 58 73 3.0 6.0 0.00 0.35 0.35 93 1007.4
20260503190254 58 98 2.0 4.0 0.00 0.35 0.35 92 1007.3
20260503185250 58 68 2.0 4.0 0.00 0.35 0.35 91 1007.1
20260503184306 59 60 4.0 6.0 0.00 0.35 0.35 90 1007.2
20260503183242 60 45 4.0 6.0 0.00 0.35 0.35 90 1007.1
20260503182237 60 75 2.0 4.0 0.00 0.35 0.35 89 1006.9
20260503181233 60 83 2.0 4.0 0.00 0.35 0.35 89 1007.0
20260503180249 62 113 3.0 6.0 0.00 0.35 0.35 87 1006.9
20260503175224 62 30 1.0 4.0 0.00 0.35 0.35 86 1006.8
20260503174220 62 75 3.0 6.0 0.00 0.35 0.35 85 1006.8
20260503173236 62 101 3.0 4.0 0.00 0.35 0.35 86 1006.7
20260503172332 63 30 2.0 6.0 0.00 0.35 0.35 86 1006.7
20260503171307 62 44 4.0 7.0 0.00 0.35 0.35 87 1006.8
20260503170343 62 83 4.0 7.0 0.00 0.35 0.35 88 1006.7
20260503150313 62 97 4.0 9.0 0.00 0.19 0.19 87 1007.3
20260503140247 62 46 2.0 4.0 0.00 0.19 0.19 88 1008.0
20260503131226 61 0.0 0.0 0.00 0.19 0.19 90 1008.7
20260503130222 60 0.0 0.0 0.01 0.19 0.19 90 1009.0
20260503110232 59 107 5.0 8.0 0.02 0.09 0.09 92 1009.4
20260503090300 59 90 3.0 4.0 0.00 0.00 0.00 88 1009.8
20260503081219 59 68 2.0 4.0 0.00 0.00 0.00 87 1010.0
20260503080315 59 45 2.0 4.0 0.00 0.00 0.00 87 1009.9
20260503072318 59 68 1.0 2.0 0.00 0.00 0.00 87 1010.1
20260503071254 58 68 0.0 2.0 0.00 0.00 0.00 88 1009.8
20260503070250 58 68 1.0 2.0 0.00 0.00 0.00 89 1009.8
20260503060224 57 68 0.0 2.0 0.00 0.00 0.00 90 1009.9
20260503054215 56 68 1.0 2.0 0.00 0.00 0.00 91 1009.9
20260503053311 56 75 1.0 2.0 0.00 0.00 0.00 91 1010.0
20260503052307 56 90 1.0 2.0 0.00 0.00 0.00 91 1009.9
20260503051302 56 90 1.0 2.0 0.00 0.00 0.00 91 1009.8
20260503050258 56 90 0.0 2.0 0.00 0.00 0.00 91 1009.6
20260503045254 56 90 2.0 4.0 0.00 0.00 0.00 91 1009.6
20260503044250 56 83 1.0 4.0 0.00 0.00 0.00 91 1009.8
20260503043245 56 75 2.0 2.0 0.00 0.00 0.00 91 1009.7
20260503042241 56 82 2.0 4.0 0.00 0.00 0.00 91 1010.0
20260503041257 56 86 1.0 4.0 0.00 0.00 0.00 91 1009.9
20260503040233 56 58 2.0 4.0 0.00 0.00 0.00 91 1009.8
20260503035229 56 38 1.0 2.0 0.00 0.00 0.00 91 1009.7
20260503034245 56 69 2.0 4.0 0.00 0.00 0.00 91 1009.8
20260503033220 56 44 3.0 4.0 0.00 0.00 0.00 91 1009.8
20260503032216 56 14 1.0 4.0 0.00 0.00 0.00 90 1009.8
20260503031312 56 68 2.0 4.0 0.00 0.00 0.00 90 1009.8
20260503030327 56 56 2.0 4.0 0.00 0.00 0.00 90 1009.9
20260503025323 56 90 2.0 4.0 0.00 0.00 0.00 90 1010.0
20260503024258 56 83 2.0 2.0 0.00 0.00 0.00 90 1010.3
20260503023314 56 54 2.0 4.0 0.00 0.00 0.00 90 1010.5
20260503022250 56 68 2.0 4.0 0.00 0.00 0.00 90 1010.5
20260503021245 56 56 2.0 4.0 0.00 0.00 0.00 90 1010.6
20260503020301 56 62 2.0 4.0 0.00 0.00 0.00 91 1010.5
20260503015237 56 45 3.0 6.0 0.00 0.00 0.00 91 1010.5
20260503014233 56 83 2.0 4.0 0.00 0.00 0.00 91 1010.5
20260503013229 56 51 3.0 4.0 0.00 0.00 0.00 90 1010.6